GALAXY 34 (G-34)

Last updated on Wed Sep 09 2026 00:03:03 GMT+0000 (Coordinated Universal Time)

1 54027U 22128B 26250.92047241 .00000000 00000+0 00000+0 0 9995 2 54027 0.0188 151.4855 0001795 41.1466 356.7412 1.00274178 14744
UTC large
Height (km)
Speed (km/s)
/
Latitude / Longitude
Inclination (degrees)
Orbital Period (minutes)
Azimuth
Elevation
Range (km)
Doppler Factor

Next 0 passes for location: London (51.5072 / 0.1276)

No passes found over London.
GALAXY 34 (G-34)